Location: Newark
(38.7000°N, 9.1833°W)
Time: 10:09:59
(UTC+00:00)

Envisat - Pass Details

Date: 27 October 2019
Orbit: 764 x 766 km, 98.1° (Epoch: 18 November)

Event Time Altitude Azimuth Distance (km) Brightness Sun altitude
Rises 18:07:56 0° 148° (SSE) 3,219 6.0 -5.6°
Reaches altitude 10° 18:10:19 10° 142° (SE) 2,297 5.2 -6.0°
Maximum altitude 18:15:06 44° 71° (ENE) 1,060 3.3 -6.9°
Drops below altitude 10° 18:19:54 10° 1° (N) 2,310 5.4 -7.9°
Sets 18:22:17 0° 355° (N) 3,240 6.2 -8.3°
